This is the latest recevied weather packets stored in our database for station/object N2RDT. If no packets are shown the sender has not sent any weather packets the latest 10 day(s).
| Time | Temp. | Humidity | Pressure | Rain* | Wind** | Luminosity | Snow |
|---|---|---|---|---|---|---|---|
| 1777641760 | 12.78° C | 56% | 1016.9 hPa | 0 mm | - | 278 W/m² | - |
| 1777641460 | 13.33° C | 55% | 1016.6 hPa | 0 mm | - | 258 W/m² | - |
| 1777641156 | 13.33° C | 55% | 1016.5 hPa | 0 mm | - | 336 W/m² | - |
| 1777640851 | 12.78° C | 57% | 1016.4 hPa | 0 mm | - | 405 W/m² | - |
| 1777640549 | 12.78° C | 59% | 1016.5 hPa | 0 mm | - | 238 W/m² | - |
| 1777640246 | 12.22° C | 61% | 1016.4 hPa | 0 mm | - | 352 W/m² | - |
| 1777639942 | 11.67° C | 62% | 1016.3 hPa | 0 mm | - | 219 W/m² | - |
| 1777639639 | 11.67° C | 64% | 1016.3 hPa | 0 mm | - | 202 W/m² | - |
| 1777639336 | 11.11° C | 63% | 1016.5 hPa | 0 mm | - | 191 W/m² | - |
| 1777639032 | 11.11° C | 62% | 1016.1 hPa | 0 mm | - | 214 W/m² | - |
| 1777638729 | 11.11° C | 63% | 1016.1 hPa | 0 mm | - | 199 W/m² | - |
| 1777638425 | 11.11° C | 63% | 1016.3 hPa | 0 mm | - | 197 W/m² | - |
| 1777638122 | 10.56° C | 67% | 1016.2 hPa | 0 mm | - | 169 W/m² | - |
| 1777637817 | 10.56° C | 66% | 1016.3 hPa | 0 mm | - | 121 W/m² | - |
| 1777637514 | 10.56° C | 65% | 1016.2 hPa | 0 mm | - | 121 W/m² | - |
| 1777637212 | 10.56° C | 67% | 1016.2 hPa | 0 mm | - | 135 W/m² | - |
| 1777636909 | 10.56° C | 67% | 1016.3 hPa | 0 mm | - | 131 W/m² | - |
| 1777636604 | 10.56° C | 65% | 1016.2 hPa | 0 mm | - | 124 W/m² | - |
| 1777636300 | 10.56° C | 66% | 1016.3 hPa | 0 mm | - | 121 W/m² | - |
| 1777635995 | 10.56° C | 65% | 1016.2 hPa | 0 mm | - | 127 W/m² | - |
| 1777635691 | 10.56° C | 66% | 1016 hPa | 0 mm | - | 128 W/m² | - |
| 1777635388 | 10.56° C | 69% | 1015.9 hPa | 0 mm | - | 132 W/m² | - |
| 1777635085 | 10° C | 69% | 1016.3 hPa | 0 mm | - | 117 W/m² | - |
| 1777634781 | 10° C | 70% | 1016.2 hPa | 0 mm | - | 81 W/m² | - |
| 1777634479 | 10° C | 70% | 1016.2 hPa | 0 mm | - | 81 W/m² | - |
* Rain latest hour (hover to see other rain measurements)
** Current wind speed in m/s (hover to see current wind gust speed)